DW7764 Weather Reports


Display with metric or nautical units.
time (UTC)temp
F
wind
direction
speed
MPH
gust
MPH
rain 1hr
in
rain 24hr
in
rain mn
in
humidity
%
barometer
mb
20240625094505 82 273 0.0 6.0 0.00 0.00 0.00 51 1016.0
20240625093004 81 184 1.0 6.0 0.00 0.00 0.00 51 1016.0
20240625091502 81 148 1.0 6.0 0.00 0.00 0.00 54 1016.0
20240625090059 79 241 3.0 8.0 0.00 0.00 0.00 53 1016.2
20240625084616 79 285 3.0 7.0 0.00 0.00 0.00 56 1016.2
20240625083108 79 273 1.0 9.0 0.00 0.00 0.00 56 1016.1
20240625081616 79 245 2.0 6.0 0.00 0.00 0.00 57 1016.2
20240625080058 79 296 0.0 5.0 0.00 0.00 0.00 60 1016.2
20240625074554 78 259 0.0 5.0 0.00 0.00 0.00 57 1016.3
20240625073049 77 283 0.0 3.0 0.00 0.00 0.00 58 1016.3
20240625071545 75 283 0.0 0.0 0.00 0.00 0.00 62 1016.5
20240625070041 72 283 0.0 0.0 0.00 0.00 0.00 67 1016.6
20240625064538 70 283 0.0 0.0 0.00 0.00 0.00 69 1016.6
20240625063045 69 283 0.0 1.0 0.00 0.00 0.00 69 1016.7
20240625061537 68 283 0.0 4.0 0.00 0.00 0.00 68 1016.7
20240625060040 67 288 0.0 4.0 0.00 0.00 0.00 66 1016.7
20240625054538 65 257 0.0 2.0 0.00 0.00 0.00 63 1016.6
20240625053036 65 257 0.0 0.0 0.00 0.00 0.00 62 1016.5
20240625051534 64 257 0.0 0.0 0.00 0.00 0.00 58 1016.5
20240625050048 63 257 0.0 0.0 0.00 0.00 0.00 57 1016.3
20240625044532 64 257 0.0 0.0 0.00 0.00 0.00 58 1016.3
20240625043044 64 257 0.0 0.0 0.00 0.00 0.00 59 1016.2
20240625041528 65 257 0.0 0.0 0.00 0.00 0.00 60 1016.1
20240625040023 66 257 0.0 0.0 0.00 0.00 0.00 61 1016.0
20240625034521 67 257 0.0 2.0 0.00 0.00 0.00 62 1016.2
20240625033020 67 257 0.0 1.0 0.00 0.00 0.00 60 1016.2
20240625031520 67 275 0.0 2.0 0.00 0.00 0.00 59 1016.2
20240625030023 67 276 0.0 2.0 0.00 0.00 0.00 58 1016.2
20240625024520 67 276 0.0 2.0 0.00 0.00 0.00 58 1016.3
20240625023016 67 276 0.0 2.0 0.00 0.00 0.00 59 1016.3
20240625021513 67 283 0.0 4.0 0.00 0.00 0.00 60 1016.3
20240625020022 68 269 1.0 3.0 0.00 0.00 0.00 60 1016.4
20240625014514 68 274 0.0 1.0 0.00 0.00 0.00 60 1016.7
20240625013008 68 253 0.0 5.0 0.00 0.00 0.00 61 1016.8
20240625011507 68 262 1.0 5.0 0.00 0.00 0.00 61 1017.0
20240625010004 69 284 1.0 5.0 0.00 0.00 0.00 62 1017.0
20240625004503 69 285 2.0 7.0 0.00 0.00 0.00 62 1017.1
20240625003002 69 273 2.0 4.0 0.00 0.00 0.00 62 1017.3
20240625001600 68 276 0.0 4.0 0.00 0.00 0.00 63 1017.4
20240625000058 69 276 0.0 5.0 0.00 0.00 0.00 64 1017.5
20240624234556 69 270 2.0 5.0 0.00 0.00 0.00 65 1017.6
20240624233054 69 283 3.0 7.0 0.00 0.00 0.00 66 1017.6
20240624231552 70 286 2.0 6.0 0.00 0.00 0.00 67 1017.7
20240624230056 70 267 1.0 6.0 0.00 0.00 0.00 68 1017.9
20240624224550 70 260 2.0 7.0 0.00 0.00 0.00 68 1017.9
20240624223051 70 285 2.0 5.0 0.00 0.00 0.00 70 1017.8
20240624221545 70 284 2.0 6.0 0.00 0.00 0.00 70 1018.0
20240624220042 70 290 2.0 6.0 0.00 0.00 0.00 71 1018.1
20240624214543 71 250 0.0 4.0 0.00 0.00 0.00 71 1018.3
20240624213044 71 281 1.0 3.0 0.00 0.00 0.00 71 1018.2
20240624211541 71 259 1.0 6.0 0.00 0.00 0.00 70 1018.3
20240624210044 71 266 1.0 5.0 0.00 0.00 0.00 70 1018.3
20240624204542 71 271 1.0 4.0 0.00 0.00 0.00 69 1018.2
20240624203038 71 252 1.0 4.0 0.00 0.00 0.00 69 1018.0
20240624201545 71 278 0.0 3.0 0.00 0.00 0.00 68 1017.8
20240624200039 72 266 0.0 4.0 0.00 0.00 0.00 68 1017.8
20240624194541 72 170 0.0 3.0 0.00 0.00 0.00 67 1017.5
20240624193037 73 271 1.0 6.0 0.00 0.00 0.00 67 1017.5
20240624191536 73 266 2.0 4.0 0.00 0.00 0.00 65 1017.4
20240624190036 74 146 1.0 3.0 0.00 0.00 0.00 63 1017.3
20240624184534 75 131 2.0 4.0 0.00 0.00 0.00 61 1017.2
20240624183034 76 97 2.0 4.0 0.00 0.00 0.00 59 1016.9
20240624181546 77 167 1.0 4.0 0.00 0.00 0.00 58 1016.9
20240624180038 77 110 2.0 8.0 0.00 0.00 0.00 58 1016.8
20240624174532 77 135 2.0 7.0 0.00 0.00 0.00 57 1016.8
20240624173037 77 118 4.0 8.0 0.00 0.00 0.00 57 1016.7
20240624171549 77 160 4.0 8.0 0.00 0.00 0.00 57 1016.6
20240624170030 78 145 3.0 8.0 0.00 0.00 0.00 58 1016.5
20240624164535 78 158 3.0 9.0 0.00 0.00 0.00 59 1016.4
20240624163030 79 128 5.0 13.0 0.00 0.00 0.00 56 1016.5
20240624161542 78 136 2.0 11.0 0.00 0.00 0.00 56 1016.6
20240624160025 79 84 6.0 12.0 0.00 0.00 0.00 54 1016.6
20240624154525 79 110 6.0 12.0 0.00 0.00 0.00 52 1016.7
20240624153023 80 111 4.0 10.0 0.00 0.00 0.00 51 1016.6
20240624151522 79 177 6.0 14.0 0.00 0.00 0.00 51 1016.6
20240624150022 80 70 7.0 12.0 0.00 0.00 0.00 49 1016.7
20240624144527 80 104 4.0 11.0 0.00 0.00 0.00 49 1016.7
20240624143021 81 112 4.0 10.0 0.00 0.00 0.00 48 1016.9
20240624141519 80 99 3.0 9.0 0.00 0.00 0.00 47 1016.8
20240624140034 79 135 2.0 8.0 0.00 0.00 0.00 49 1017.0
20240624134531 79 143 2.0 7.0 0.00 0.00 0.00 48 1017.2
20240624133019 80 191 5.0 12.0 0.00 0.00 0.00 46 1017.2
20240624131516 80 127 6.0 13.0 0.00 0.00 0.00 46 1017.1
20240624130015 82 94 2.0 5.0 0.00 0.00 0.00 44 1017.2
20240624124516 80 138 1.0 8.0 0.00 0.00 0.00 47 1017.2
20240624123011 79 266 1.0 6.0 0.00 0.00 0.00 48 1017.5
20240624121507 79 262 0.0 7.0 0.00 0.00 0.00 50 1017.7
20240624120012 80 308 1.0 8.0 0.00 0.00 0.00 50 1017.8
20240624114506 80 142 1.0 11.0 0.00 0.00 0.00 50 1017.9
20240624113100 78 252 1.0 5.0 0.00 0.00 0.00 53 1018.1
20240624111600 75 248 0.0 5.0 0.00 0.00 0.00 59 1018.2
20240624110100 76 278 3.0 7.0 0.00 0.00 0.00 58 1018.4
20240624104558 76 72 3.0 7.0 0.00 0.00 0.00 57 1018.5
20240624103054 76 307 3.0 9.0 0.00 0.00 0.00 57 1018.5
20240624101551 75 268 3.0 12.0 0.00 0.00 0.00 59 1018.4
20240624100101 75 127 3.0 7.0 0.00 0.00 0.00 63 1018.5